EW7239 Weather Reports


time (UTC)temp
C
wind
direction
speed
KPH
gust
KPH
rain 1hr
cm
rain 24hr
cm
rain mn
cm
humidity
%
barometer
mb
20260509004757 27 220 11.3 19.3 0.00 0.00 0.00 48 1012.6
20260509003522 28 203 9.7 16.1 0.00 0.00 0.00 46 1012.6
20260509003021 28 232 9.7 17.7 0.00 0.00 0.00 45 1012.6
20260509002753 28 227 9.7 17.7 0.00 0.00 0.00 46 1012.5
20260509001514 28 250 11.3 22.5 0.00 0.00 0.00 46 1012.6
20260509001013 28 265 11.3 24.1 0.00 0.00 0.00 46 1012.6
20260509000512 28 264 11.3 24.1 0.00 0.00 0.00 45 1012.6
20260509000012 28 241 12.9 27.4 0.00 0.00 0.00 45 1012.6
20260508235513 28 250 11.3 27.4 0.00 0.00 0.00 46 1012.6
20260508235010 27 271 12.9 22.5 0.00 0.00 0.00 47 1012.7
20260508234511 27 223 12.9 22.5 0.00 0.00 0.00 46 1012.7
20260508234005 28 212 11.3 20.9 0.00 0.00 0.00 46 1012.7
20260508233504 28 247 12.9 20.9 0.00 0.00 0.00 45 1012.7
20260508233004 28 223 11.3 20.9 0.00 0.00 0.00 45 1012.7
20260508232504 28 223 9.7 20.9 0.00 0.00 0.00 45 1012.7
20260508232236 28 253 11.3 17.7 0.00 0.00 0.00 45 1012.8
20260508231504 28 256 9.7 17.7 0.00 0.00 0.00 44 1012.9
20260508231005 28 248 9.7 16.1 0.00 0.00 0.00 44 1012.9
20260508230503 28 252 9.7 19.3 0.00 0.00 0.00 45 1013.0
20260508230004 28 246 11.3 19.3 0.00 0.00 0.00 45 1013.1
20260508225501 28 243 11.3 20.9 0.00 0.00 0.00 46 1013.1
20260508225233 28 268 12.9 20.9 0.00 0.00 0.00 46 1013.1
20260508224458 28 221 12.9 20.9 0.00 0.00 0.00 46 1013.2
20260508223958 28 225 11.3 20.9 0.00 0.00 0.00 46 1013.2
20260508223458 29 213 11.3 19.3 0.00 0.00 0.00 45 1013.3
20260508223000 28 242 9.7 19.3 0.00 0.00 0.00 46 1013.3
20260508222459 28 229 9.7 19.3 0.00 0.00 0.00 46 1013.4
20260508221959 28 250 9.7 19.3 0.00 0.00 0.00 47 1013.4
20260508221500 28 247 11.3 19.3 0.00 0.00 0.00 46 1013.4
20260508221000 28 223 11.3 22.5 0.00 0.00 0.00 46 1013.5
20260508220731 28 221 11.3 22.5 0.00 0.00 0.00 45 1013.5
20260508215959 28 223 9.7 17.7 0.00 0.00 0.00 46 1013.5
20260508215459 28 206 9.7 20.9 0.00 0.00 0.00 45 1013.6
20260508214959 28 221 8.0 20.9 0.00 0.00 0.00 45 1013.6
20260508214459 28 226 9.7 19.3 0.00 0.00 0.00 45 1013.6
20260508213958 28 211 9.7 19.3 0.00 0.00 0.00 45 1013.6
20260508213456 28 225 8.0 16.1 0.00 0.00 0.00 46 1013.7
20260508212957 29 237 6.4 14.5 0.00 0.00 0.00 45 1013.7
20260508212457 29 227 8.0 16.1 0.00 0.00 0.00 45 1013.8
20260508211957 29 263 8.0 16.1 0.00 0.00 0.00 45 1013.8
20260508211455 29 265 6.4 16.1 0.00 0.00 0.00 45 1013.9
20260508211225 29 244 6.4 11.3 0.00 0.00 0.00 45 1013.9
20260508210450 29 238 6.4 12.9 0.00 0.00 0.00 45 1014.0
20260508205948 28 227 4.8 12.9 0.00 0.00 0.00 45 1014.0
20260508205450 28 223 3.2 11.3 0.00 0.00 0.00 46 1014.1
20260508204944 28 229 6.4 12.9 0.00 0.00 0.00 45 1014.3
20260508204441 28 246 8.0 14.5 0.00 0.00 0.00 48 1014.4
20260508203940 28 220 6.4 14.5 0.00 0.00 0.00 46 1014.4
20260508203713 28 212 6.4 12.9 0.00 0.00 0.00 46 1014.4
20260508202942 28 212 4.8 11.3 0.00 0.00 0.00 46 1014.4
20260508202438 28 228 4.8 11.3 0.00 0.00 0.00 46 1014.5
20260508201938 27 238 4.8 11.3 0.00 0.00 0.00 49 1014.5
20260508201438 27 203 4.8 9.7 0.00 0.00 0.00 49 1014.6
20260508201210 27 202 6.4 12.9 0.00 0.00 0.00 48 1014.6
20260508200438 27 200 4.8 12.9 0.00 0.00 0.00 49 1014.6
20260508195939 27 224 4.8 9.7 0.00 0.00 0.00 49 1014.7
20260508195709 26 212 4.8 9.7 0.00 0.00 0.00 52 1014.7
20260508195208 26 205 4.8 11.3 0.00 0.00 0.00 52 1014.9
20260508194437 26 198 4.8 11.3 0.00 0.00 0.00 51 1014.9
20260508193938 26 207 4.8 11.3 0.00 0.00 0.00 51 1014.9
20260508193706 26 230 4.8 9.7 0.00 0.00 0.00 54 1015.0
20260508192935 26 223 6.4 11.3 0.00 0.00 0.00 54 1015.2
20260508192434 25 220 6.4 12.9 0.00 0.00 0.00 55 1015.2
20260508191935 25 213 3.2 12.9 0.00 0.00 0.00 56 1015.3
20260508191434 25 228 3.2 9.7 0.00 0.00 0.00 56 1015.3
20260508190940 25 229 4.8 9.7 0.00 0.00 0.00 56 1015.5
20260508190433 24 229 4.8 9.7 0.00 0.00 0.00 59 1015.5
20260508185931 24 229 3.2 9.7 0.00 0.00 0.00 60 1015.5
20260508185429 23 220 4.8 9.7 0.00 0.00 0.00 59 1015.6
20260508184928 23 220 4.8 9.7 0.00 0.00 0.00 60 1015.7
20260508184430 23 221 3.2 9.7 0.00 0.00 0.00 62 1015.6
20260508183929 23 218 4.8 9.7 0.00 0.00 0.00 63 1015.8
20260508183430 22 218 4.8 9.7 0.00 0.00 0.00 64 1015.8
20260508182926 22 218 4.8 9.7 0.00 0.00 0.00 64 1015.8
20260508182425 22 217 4.8 9.7 0.00 0.00 0.00 64 1015.9
20260508181919 22 217 4.8 11.3 0.00 0.00 0.00 67 1016.0
20260508181418 21 209 6.4 12.9 0.00 0.00 0.00 67 1016.1
20260508180914 21 209 4.8 12.9 0.00 0.00 0.00 67 1016.1
20260508180413 21 213 4.8 11.3 0.00 0.00 0.00 67 1016.2
20260508175913 21 214 6.4 11.3 0.00 0.00 0.00 68 1016.2
20260508175641 21 207 3.2 11.3 0.00 0.00 0.00 68 1016.3
20260508174910 21 209 3.2 11.3 0.00 0.00 0.00 70 1016.3
20260508174411 21 209 4.8 11.3 0.00 0.00 0.00 69 1016.3
20260508173908 20 207 4.8 11.3 0.00 0.00 0.00 71 1016.2
20260508173408 20 207 6.4 11.3 0.00 0.00 0.00 71 1016.3
20260508172906 20 201 4.8 11.3 0.00 0.00 0.00 71 1016.3
20260508172408 20 215 3.2 11.3 0.00 0.00 0.00 72 1016.2
20260508172138 20 215 1.6 9.7 0.00 0.00 0.00 74 1016.3
20260508171404 20 215 3.2 9.7 0.00 0.00 0.00 74 1016.3
20260508171136 19 215 3.2 9.7 0.00 0.00 0.00 75 1016.3
20260508170404 19 215 3.2 9.7 0.00 0.00 0.00 76 1016.4
20260508165904 19 219 1.6 4.8 0.00 0.00 0.00 78 1016.3
20260508165404 18 219 1.6 4.8 0.00 0.00 0.00 79 1016.3
20260508164905 18 220 0.0 4.8 0.00 0.00 0.00 81 1016.4
20260508164403 18 220 1.6 4.8 0.00 0.00 0.00 83 1016.4
20260508163904 17 220 1.6 4.8 0.00 0.00 0.00 83 1016.5
20260508163401 17 219 1.6 8.0 0.00 0.00 0.00 84 1016.5
20260508162902 17 219 3.2 8.0 0.00 0.00 0.00 84 1016.5
20260508162359 16 220 3.2 8.0 0.00 0.00 0.00 84 1016.5
20260508161857 16 220 1.6 6.4 0.00 0.00 0.00 85 1016.5
20260508161357 16 220 1.6 8.0 0.00 0.00 0.00 85 1016.5
20260508160857 16 220 1.6 8.0 0.00 0.00 0.00 85 1016.5
20260508160628 16 220 0.0 4.8 0.00 0.00 0.00 85 1016.5
20260508160126 16 220 1.6 4.8 0.00 0.00 0.00 85 1016.5
20260508155353 16 220 3.2 6.4 0.00 0.00 0.00 85 1016.8
20260508154852 16 220 1.6 6.4 0.00 0.00 0.00 85 1016.6
20260508154623 16 220 0.0 6.4 0.00 0.00 0.00 85 1016.6
20260508153853 16 220 0.0 0.0 0.00 0.00 0.00 85 1016.8
20260508153351 16 220 0.0 0.0 0.00 0.00 0.00 84 1016.8
20260508152852 15 220 0.0 0.0 0.00 0.00 0.00 84 1016.8
20260508152351 15 220 0.0 0.0 0.00 0.00 0.00 84 1016.8
20260508151850 15 228 0.0 1.6 0.00 0.00 0.00 84 1016.8
20260508151347 15 228 1.6 4.8 0.00 0.00 0.00 84 1016.9
20260508150845 15 228 1.6 4.8 0.00 0.00 0.00 84 1016.9
20260508150346 15 228 0.0 3.2 0.00 0.00 0.00 83 1016.9
20260508145342 15 228 0.0 3.2 0.00 0.00 0.00 83 1017.0
20260508144843 15 228 0.0 3.2 0.00 0.00 0.00 83 1017.0
20260508144342 15 228 0.0 1.6 0.00 0.00 0.00 83 1016.9
20260508143840 15 228 0.0 3.2 0.00 0.00 0.00 83 1016.9
20260508143341 15 228 1.6 3.2 0.00 0.00 0.00 83 1016.9
20260508142837 15 228 1.6 3.2 0.00 0.00 0.00 83 1016.9
20260508142338 15 228 0.0 3.2 0.00 0.00 0.00 83 1016.9
20260508141830 15 228 0.0 4.8 0.00 0.00 0.00 83 1017.0
20260508141329 15 228 0.0 4.8 0.00 0.00 0.00 83 1016.9
20260508140830 15 228 0.0 4.8 0.00 0.00 0.00 83 1017.0
20260508140326 15 228 1.6 4.8 0.00 0.00 0.00 83 1016.9
20260508135825 15 228 1.6 4.8 0.00 0.00 0.00 83 1016.8
20260508135325 15 228 1.6 8.0 0.00 0.00 0.00 83 1016.8
20260508134822 14 228 1.6 8.0 0.00 0.00 0.00 83 1016.8
20260508134321 14 228 1.6 8.0 0.00 0.00 0.00 83 1016.8
20260508133820 14 228 1.6 8.0 0.00 0.00 0.00 83 1016.8
20260508133550 14 228 3.2 8.0 0.00 0.00 0.00 83 1016.8
20260508132820 14 228 3.2 8.0 0.00 0.00 0.00 83 1016.6
20260508132318 14 228 1.6 4.8 0.00 0.00 0.00 83 1016.5
20260508131817 14 228 3.2 6.4 0.00 0.00 0.00 83 1016.5
20260508131315 14 228 3.2 6.4 0.00 0.00 0.00 83 1016.5
20260508131045 14 228 1.6 4.8 0.00 0.00 0.00 83 1016.4
20260508130543 14 234 1.6 3.2 0.00 0.00 0.00 83 1016.3
20260508130043 14 234 1.6 4.8 0.00 0.00 0.00 84 1016.3
20260508125313 14 234 1.6 8.0 0.00 0.00 0.00 84 1016.3
20260508124811 14 234 1.6 8.0 0.00 0.00 0.00 83 1016.2
20260508124041 14 234 0.0 0.0 0.00 0.00 0.00 84 1016.2
20260508123309 14 234 0.0 3.2 0.00 0.00 0.00 84 1016.1
20260508123037 14 234 1.6 8.0 0.00 0.00 0.00 84 1016.0
20260508121807 14 234 3.2 6.4 0.00 0.00 0.00 84 1016.0
20260508121308 14 234 3.2 6.4 0.00 0.00 0.00 84 1016.0
20260508120805 14 234 3.2 4.8 0.00 0.00 0.00 85 1015.8
20260508120304 14 234 3.2 6.4 0.00 0.00 0.00 85 1015.9
20260508115758 14 234 3.2 6.4 0.00 0.00 0.00 85 1015.8
20260508115525 14 234 1.6 6.4 0.00 0.00 0.00 85 1015.8
20260508114755 14 234 3.2 6.4 0.00 0.00 0.00 85 1015.8
20260508114253 14 234 3.2 6.4 0.00 0.00 0.00 85 1015.7
20260508113751 14 234 3.2 6.4 0.00 0.00 0.00 85 1015.7
20260508113521 14 234 3.2 4.8 0.00 0.00 0.00 85 1015.7
20260508113019 14 234 3.2 6.4 0.00 0.00 0.00 85 1015.7
20260508112242 13 234 3.2 8.0 0.00 0.00 0.00 86 1015.7
20260508112009 13 234 3.2 8.0 0.00 0.00 0.00 86 1015.8
20260508111239 13 234 3.2 8.0 0.00 0.00 0.00 86 1015.7
20260508110738 14 234 3.2 8.0 0.00 0.00 0.00 86 1015.7
20260508110240 14 234 3.2 8.0 0.00 0.00 0.00 86 1015.7
20260508105738 14 234 3.2 8.0 0.00 0.00 0.00 86 1015.6
20260508105239 14 234 3.2 6.4 0.00 0.00 0.00 86 1015.7
20260508104738 14 234 3.2 6.4 0.00 0.00 0.00 86 1015.7
20260508104237 13 234 1.6 4.8 0.00 0.00 0.00 86 1015.7
20260508103737 14 234 0.0 3.2 0.00 0.00 0.00 86 1015.8
20260508103237 14 234 1.6 3.2 0.00 0.00 0.00 86 1015.8
20260508102737 14 234 1.6 4.8 0.00 0.00 0.00 86 1015.8
20260508102236 14 234 1.6 4.8 0.00 0.00 0.00 86 1015.8
20260508102007 14 234 3.2 6.4 0.00 0.00 0.00 86 1015.8
20260508101236 14 234 3.2 6.4 0.00 0.00 0.00 86 1015.8
20260508100736 14 234 1.6 6.4 0.00 0.00 0.00 86 1015.8
20260508100237 14 234 1.6 6.4 0.00 0.00 0.00 86 1015.8
20260508095730 14 234 1.6 4.8 0.00 0.00 0.00 86 1015.7
20260508095230 14 234 1.6 4.8 0.00 0.00 0.00 86 1015.7
20260508094731 14 234 1.6 6.4 0.00 0.00 0.00 86 1015.7
20260508094232 14 234 3.2 6.4 0.00 0.00 0.00 85 1015.7
20260508093730 14 234 1.6 4.8 0.00 0.00 0.00 85 1015.8
20260508093501 15 234 1.6 4.8 0.00 0.00 0.00 85 1015.8
20260508092730 15 234 1.6 4.8 0.00 0.00 0.00 85 1015.8
20260508092231 15 234 1.6 4.8 0.00 0.00 0.00 85 1015.8
20260508091731 15 234 1.6 4.8 0.00 0.00 0.00 85 1015.8
20260508091231 15 234 1.6 3.2 0.00 0.00 0.00 85 1015.8
20260508090728 15 234 1.6 4.8 0.00 0.00 0.00 84 1015.8
20260508090228 15 234 1.6 4.8 0.00 0.00 0.00 84 1015.8
20260508085226 15 234 1.6 3.2 0.00 0.00 0.00 84 1015.9
20260508084727 15 234 1.6 6.4 0.00 0.00 0.00 84 1016.0
20260508084226 15 234 1.6 6.4 0.00 0.00 0.00 84 1016.0
20260508083727 15 234 1.6 6.4 0.00 0.00 0.00 83 1016.0
20260508083458 15 234 1.6 4.8 0.00 0.00 0.00 83 1016.1
20260508082726 15 234 0.0 4.8 0.00 0.00 0.00 83 1016.2
20260508082223 15 234 0.0 3.2 0.00 0.00 0.00 83 1016.2
20260508081723 15 234 0.0 4.8 0.00 0.00 0.00 83 1016.2
20260508081221 15 234 1.6 4.8 0.00 0.00 0.00 83 1016.2
20260508080722 15 234 1.6 6.4 0.00 0.00 0.00 83 1016.3
20260508080450 15 234 1.6 6.4 0.00 0.00 0.00 83 1016.2
20260508075717 15 234 3.2 8.0 0.00 0.00 0.00 82 1016.2
20260508075216 15 234 3.2 8.0 0.00 0.00 0.00 82 1016.3
20260508074448 15 234 3.2 6.4 0.00 0.00 0.00 82 1016.3
20260508073715 15 234 1.6 6.4 0.00 0.00 0.00 81 1016.4
20260508073214 15 234 1.6 3.2 0.00 0.00 0.00 81 1016.3
20260508072715 16 234 0.0 4.8 0.00 0.00 0.00 81 1016.3
20260508072212 16 234 1.6 4.8 0.00 0.00 0.00 81 1016.3
20260508071712 16 234 1.6 4.8 0.00 0.00 0.00 81 1016.4
20260508071213 16 234 1.6 4.8 0.00 0.00 0.00 80 1016.4
20260508070712 16 234 3.2 6.4 0.00 0.00 0.00 80 1016.3
20260508070208 16 234 3.2 6.4 0.00 0.00 0.00 80 1016.3
20260508065941 16 234 3.2 6.4 0.00 0.00 0.00 80 1016.3
20260508065207 16 234 3.2 6.4 0.00 0.00 0.00 80 1016.3
20260508064938 16 234 3.2 4.8 0.00 0.00 0.00 80 1016.2
20260508064205 16 234 3.2 4.8 0.00 0.00 0.00 80 1016.2
20260508063937 16 234 1.6 4.8 0.00 0.00 0.00 79 1016.2
20260508063206 16 234 3.2 6.4 0.00 0.00 0.00 79 1016.2
20260508062704 16 234 3.2 8.0 0.00 0.00 0.00 79 1016.2
20260508062206 16 234 4.8 8.0 0.00 0.00 0.00 78 1016.2
20260508061936 16 234 4.8 11.3 0.00 0.00 0.00 78 1016.2
20260508061207 16 234 6.4 11.3 0.00 0.00 0.00 78 1016.2
20260508060705 16 234 6.4 11.3 0.00 0.00 0.00 78 1016.1
20260508060205 17 234 4.8 11.3 0.00 0.00 0.00 77 1016.1
20260508055705 17 236 4.8 9.7 0.00 0.00 0.00 77 1016.1
20260508055437 17 236 4.8 9.7 0.00 0.00 0.00 76 1016.1
20260508054705 17 236 4.8 11.3 0.00 0.00 0.00 76 1016.2
20260508054206 17 236 6.4 11.3 0.00 0.00 0.00 76 1016.1
20260508053706 17 236 6.4 12.9 0.00 0.00 0.00 76 1016.1
20260508053204 17 235 4.8 12.9 0.00 0.00 0.00 75 1016.1
20260508052701 17 234 4.8 9.7 0.00 0.00 0.00 74 1016.1
20260508052202 17 234 4.8 9.7 0.00 0.00 0.00 74 1016.0
20260508051930 18 234 6.4 11.3 0.00 0.00 0.00 74 1016.0
20260508051200 18 234 6.4 11.3 0.00 0.00 0.00 73 1015.9
20260508050656 18 234 6.4 11.3 0.00 0.00 0.00 73 1015.9
20260508050158 18 236 6.4 11.3 0.00 0.00 0.00 73 1015.9
20260508045658 18 238 6.4 11.3 0.00 0.00 0.00 72 1015.9
20260508045155 18 238 6.4 12.9 0.00 0.00 0.00 72 1015.9
20260508044653 18 238 6.4 12.9 0.00 0.00 0.00 72 1015.8
20260508044153 18 242 6.4 11.3 0.00 0.00 0.00 72 1015.7
20260508043654 18 244 6.4 11.3 0.00 0.00 0.00 71 1015.7
20260508043153 18 248 6.4 11.3 0.00 0.00 0.00 71 1015.7
20260508042652 18 250 8.0 12.9 0.00 0.00 0.00 70 1015.6
20260508042150 19 252 8.0 16.1 0.00 0.00 0.00 70 1015.6
20260508041650 19 259 6.4 16.1 0.00 0.00 0.00 70 1015.5
20260508041149 19 238 6.4 12.9 0.00 0.00 0.00 70 1015.4
20260508040642 19 238 6.4 14.5 0.00 0.00 0.00 69 1015.3
20260508040138 19 252 6.4 14.5 0.00 0.00 0.00 69 1015.2
20260508035637 19 255 8.0 16.1 0.00 0.00 0.00 69 1015.2
20260508035137 19 248 8.0 16.1 0.00 0.00 0.00 69 1015.2
20260508034636 20 234 8.0 16.1 0.00 0.00 0.00 69 1015.1
20260508034135 20 225 6.4 12.9 0.00 0.00 0.00 68 1015.0
20260508033635 20 225 8.0 14.5 0.00 0.00 0.00 68 1014.9
20260508033135 20 225 8.0 14.5 0.00 0.00 0.00 68 1014.9
20260508032636 20 226 8.0 14.5 0.00 0.00 0.00 67 1014.8
20260508032135 20 225 8.0 16.1 0.00 0.00 0.00 67 1014.7
20260508031635 20 223 8.0 16.1 0.00 0.00 0.00 67 1014.7
20260508031131 20 223 9.7 14.5 0.00 0.00 0.00 66 1014.6
20260508030632 20 222 8.0 14.5 0.00 0.00 0.00 66 1014.6
20260508030131 20 221 6.4 12.9 0.00 0.00 0.00 65 1014.6
20260508025129 21 217 4.8 11.3 0.00 0.00 0.00 64 1014.4
20260508024628 21 217 6.4 11.3 0.00 0.00 0.00 64 1014.3
20260508024125 21 217 6.4 11.3 0.00 0.00 0.00 63 1014.3
20260508023857 21 218 6.4 12.9 0.00 0.00 0.00 63 1014.2
20260508023123 21 217 8.0 12.9 0.00 0.00 0.00 62 1014.2
20260508022855 21 212 8.0 11.3 0.00 0.00 0.00 62 1014.1
20260508022121 21 201 9.7 14.5 0.00 0.00 0.00 62 1014.0
20260508021852 21 202 9.7 20.9 0.00 0.00 0.00 61 1014.0
20260508021122 22 223 9.7 20.9 0.00 0.00 0.00 60 1014.0
20260508020620 22 192 9.7 17.7 0.00 0.00 0.00 60 1013.9
20260508020117 22 202 9.7 16.1 0.00 0.00 0.00 59 1013.8
20260508015617 22 190 11.3 17.7 0.00 0.00 0.00 58 1013.8
20260508015113 23 215 11.3 17.7 0.00 0.00 0.00 58 1013.7
20260508014612 23 214 11.3 19.3 0.00 0.00 0.00 57 1013.7
20260508014344 23 213 11.3 20.9 0.00 0.00 0.00 56 1013.7
20260508013609 23 219 9.7 20.9 0.00 0.00 0.00 55 1013.5
20260508013341 24 215 9.7 17.7 0.00 0.00 0.00 55 1013.5
20260508012609 24 217 9.7 16.1 0.00 0.00 0.00 54 1013.5
20260508012107 24 214 11.3 20.9 0.00 0.00 0.00 54 1013.5
20260508011838 24 211 12.9 20.9 0.00 0.00 0.00 53 1013.4
20260508011105 25 215 11.3 20.9 0.00 0.00 0.00 52 1013.3
20260508010605 25 217 11.3 19.3 0.00 0.00 0.00 52 1013.3
20260508010107 25 206 11.3 20.9 0.00 0.00 0.00 52 1013.3
20260508005603 25 225 11.3 20.9 0.00 0.00 0.00 51 1013.3
20260508005335 25 218 11.3 24.1 0.00 0.00 0.00 51 1013.3